Wind_Speed
1 5 6 7 8 7 8 10 12 13 14 15 16 18 19 19 20 21 21 21 20 19 20 20 20 21 21 21 22 21 20 18 16 15 14 14 12 9 8 9 12 13 13 13 12 11 9 8 6 4 4 3 2 2 3 4 5 6 7 7 7 7 8 8 8 8 8 8 9 10 11 13 14 14 14 15 16 18 20 22 23 25 26 28 29
2 4 7 8 9 9 9 11 12 13 15 15 16 16 17 18 18 20 20 20 20 20 22 22 21 22 22 22 21 19 18 16 14 13 13 11 9 8 11 14 15 14 14 13 12 10 9 7 6 5 4 3 2 3 4 5 6 7 7 8 8 9 9 9 9 9 9 9 9 10 12 13 14 15 15 16 17 19 21 23 25 26 28 29 30
4 2 7 9 10 11 11 12 13 14 15 16 16 16 16 17 17 18 19 19 20 21 22 23 23 23 23 21 19 17 16 14 12 12 11 10 10 13 16 16 16 15 14 13 11 10 8 7 5 4 3 3 3 4 5 5 6 7 9 9 10 10 10 10 9 9 9 9 10 11 12 14 15 16 16 17 18 20 22 24 26 27 29 30 31
5 2 6 9 11 13 13 14 14 15 17 18 17 17 17 17 17 18 19 19 20 21 22 22 23 22 21 19 17 16 14 12 11 11 10 12 15 17 18 17 16 15 13 12 11 9 7 6 5 4 3 3 4 4 5 6 7 9 10 11 11 11 11 11 10 9 9 10 11 12 13 15 16 16 17 18 19 21 23 25 26 28 29 30 31
6 3 4 8 11 14 15 15 15 16 17 19 19 19 19 19 19 20 20 21 21 22 22 22 22 21 19 16 16 14 12 10 11 12 15 17 19 20 19 17 16 14 13 12 11 9 7 5 4 3 2 3 4 4 6 7 9 10 11 12 12 11 11 11 10 10 10 10 11 13 14 16 17 18 19 20 21 23 24 25 27 28 29 30 31
7 4 3 6 10 12 15 15 15 16 17 18 19 20 20 21 21 22 22 22 23 23 23 22 21 19 16 15 14 11 9 12 15 18 20 21 21 20 18 17 15 14 13 12 10 8 6 4 3 2 3 3 4 5 7 8 10 11 12 13 12 12 11 11 11 10 10 11 12 13 15 16 18 18 19 21 22 24 25 26 27 28 29 30 31
7 5 2 5 8 11 13 15 16 16 16 17 18 19 20 21 22 22 22 23 23 23 22 21 20 17 15 14 12 10 13 17 19 21 22 22 21 19 17 16 15 14 13 11 10 8 6 4 3 3 4 4 4 6 8 9 11 12 13 13 13 12 11 11 11 11 11 11 13 14 16 17 18 19 20 22 23 25 26 26 27 28 29 30 31
7 6 2 3 7 10 12 15 16 16 16 16 16 17 18 19 20 21 21 21 21 21 21 19 17 15 14 13 12 15 19 20 22 23 22 21 20 18 16 15 14 13 12 10 9 7 5 3 3 3 4 4 5 7 8 10 12 13 14 13 13 12 11 11 11 11 11 12 14 15 16 17 18 19 21 22 24 25 26 26 27 28 29 30 32
5 5 4 2 5 8 11 13 15 15 14 14 14 14 15 16 16 17 17 18 18 18 17 16 15 15 15 15 18 20 21 22 23 23 22 21 19 17 16 15 14 13 11 10 8 6 4 3 2 3 3 4 5 7 9 10 12 13 13 13 12 11 11 11 11 11 12 13 14 15 16 17 19 20 21 23 24 25 26 27 27 28 30 31 32
4 4 4 2 4 7 9 11 12 12 12 11 12 12 13 13 13 14 14 15 15 15 15 15 16 16 17 20 22 22 23 23 23 22 21 20 18 17 16 15 14 12 11 10 8 6 4 3 2 2 3 4 5 7 9 10 12 13 13 13 12 11 11 11 11 11 12 13 14 15 17 18 20 21 22 23 24 25 26 27 28 29 30 31 32
2 3 3 3 3 6 8 10 11 11 11 12 12 12 12 11 11 12 12 13 14 15 15 16 18 19 21 24 24 23 24 23 22 21 20 19 18 17 16 15 13 12 11 9 7 5 4 2 1 1 2 4 6 8 10 11 12 13 13 13 12 11 11 11 11 12 12 13 14 16 18 19 21 22 23 24 24 25 26 27 28 30 31 32 32
1 2 2 3 4 6 9 11 12 13 13 13 12 12 11 10 10 10 11 13 14 15 17 19 21 23 26 26 25 25 25 23 22 21 20 19 18 17 16 14 13 11 10 8 7 5 4 2 1 1 2 4 6 8 9 11 12 13 13 12 11 11 11 11 12 12 13 14 15 17 19 20 22 23 23 24 25 25 27 28 29 30 31 32 32
1 1 2 3 4 5 8 11 13 14 14 13 13 11 10 9 9 9 10 12 14 16 19 22 24 27 28 27 27 26 25 24 23 22 20 19 17 16 14 12 11 10 9 8 6 5 4 3 1 1 2 4 5 7 8 10 11 12 12 11 10 10 10 11 12 13 14 15 17 18 20 21 22 23 24 24 25 26 27 29 30 31 32 32 32
3 1 2 2 4 5 7 10 12 13 14 14 13 12 10 9 9 9 9 11 13 16 20 24 27 28 28 27 27 27 25 24 23 22 20 18 16 14 12 10 10 9 8 7 5 4 4 3 2 2 3 4 5 7 8 10 11 12 11 10 9 9 10 11 12 14 15 17 19 20 21 22 23 23 24 25 26 27 28 30 31 31 31 32 32
4 3 2 2 3 5 6 7 10 12 13 14 13 12 11 10 9 9 9 10 12 16 20 23 26 27 27 27 27 26 25 24 22 20 18 16 14 12 10 9 9 8 7 6 5 5 5 4 3 3 4 5 6 7 8 10 11 11 11 9 9 9 10 11 13 15 17 19 20 21 22 22 23 24 25 26 27 28 29 31 31 31 31 32 32
6 4 3 3 4 4 5 6 8 11 12 13 14 13 12 12 11 10 10 11 12 15 18 21 23 25 25 26 26 24 23 21 19 17 15 13 12 11 10 10 9 9 8 7 7 6 5 4 4 4 5 5 7 8 8 9 10 11 10 9 9 9 11 12 14 16 18 20 22 22 23 23 23 25 26 27 28 29 31 31 31 31 31 32 32
8 6 4 4 5 6 6 7 8 10 12 13 13 13 13 12 12 11 11 12 13 14 16 19 20 22 22 23 24 22 20 19 17 16 14 12 12 12 12 11 10 10 9 8 8 7 6 5 5 5 6 6 7 8 8 9 9 9 9 9 9 10 12 14 16 18 19 21 22 23 24 24 24 25 27 28 30 31 31 31 31 31 32 32 32
10 8 7 6 7 8 9 9 10 11 12 12 13 12 12 12 12 11 12 12 13 14 15 17 18 19 18 19 21 20 19 17 16 15 13 13 13 13 12 12 11 11 10 9 8 7 7 6 6 7 7 7 7 7 8 9 8 8 9 9 9 11 13 15 17 19 20 21 23 24 24 25 25 27 28 29 31 31 31 31 31 31 32 32 33
11 10 9 8 7 8 10 10 10 11 11 12 12 12 11 11 11 11 11 12 12 13 14 15 15 15 16 17 18 17 17 16 15 15 14 14 14 13 13 12 12 11 10 9 8 8 8 8 8 8 7 7 7 7 8 8 8 8 8 9 10 12 14 16 18 20 21 22 23 24 25 26 27 28 29 30 31 31 31 31 31 32 32 32 33
13 12 11 10 9 9 10 10 11 11 11 11 11 11 12 11 11 11 11 11 11 13 14 14 14 14 15 16 16 16 16 16 16 15 15 14 14 13 13 12 11 10 10 10 9 9 9 9 9 8 8 7 7 7 8 8 8 8 9 10 12 14 16 17 19 20 21 22 23 25 26 28 29 30 30 31 31 31 31 31 31 32 32 33 34
14 14 13 12 11 11 11 11 11 11 11 11 12 12 12 12 12 12 11 11 12 13 14 14 14 15 15 15 15 15 15 15 15 15 14 14 13 13 13 12 11 11 11 11 11 11 10 10 9 9 8 8 7 7 7 7 8 9 10 12 13 15 17 18 19 20 21 22 24 26 28 29 30 31 32 32 31 31 31 31 32 32 33 34 35
14 14 14 14 14 13 13 13 12 12 12 12 12 12 12 12 12 12 12 12 12 13 14 15 15 15 15 14 14 15 15 15 14 14 13 13 13 13 13 12 12 12 12 12 12 11 11 10 9 9 9 8 8 8 8 8 8 9 11 13 15 16 18 19 20 21 22 23 25 27 29 30 32 32 33 32 31 31 31 32 32 33 34 35 36
14 15 15 16 15 15 15 14 14 14 14 13 13 13 13 13 13 13 13 13 14 14 15 15 15 15 14 14 14 15 15 14 14 13 13 13 13 13 13 13 13 13 13 13 12 11 10 10 9 9 9 9 9 8 9 9 9 11 12 14 16 18 19 19 20 21 23 24 26 28 29 31 32 33 33 32 31 31 31 32 33 34 35 36 37
15 15 16 16 16 16 16 16 16 16 15 15 14 14 14 14 14 14 14 14 15 15 15 15 15 15 15 15 14 14 14 13 13 13 14 14 14 14 14 14 14 14 13 12 12 11 10 10 9 9 10 10 10 10 10 10 11 12 14 15 17 19 20 20 21 22 24 26 28 29 30 32 33 33 32 32 31 31 32 33 34 35 36 37 39
15 16 16 16 17 17 18 18 18 17 17 17 16 16 16 15 15 15 15 16 16 16 16 16 16 15 15 15 14 14 14 14 14 15 15 15 15 15 15 14 14 13 12 11 11 10 10 10 10 10 10 11 11 11 12 12 13 14 15 17 18 19 21 21 22 24 26 28 29 31 32 33 33 32 32 32 32 32 33 33 34 36 37 39 40
17 16 16 17 17 18 18 18 18 19 18 18 18 18 18 17 17 17 16 16 16 16 16 16 16 16 16 16 15 16 16 16 16 17 17 16 16 15 15 14 13 12 12 11 11 11 11 11 10 11 12 12 13 13 14 14 15 16 17 18 20 21 22 23 24 26 27 29 31 32 33 34 33 32 32 32 32 33 33 34 35 37 39 40 42
18 18 17 17 18 18 18 18 19 19 19 19 19 19 19 18 18 18 17 17 17 17 17 17 17 17 17 17 17 17 17 17 17 16 16 15 15 14 14 13 12 12 12 12 12 12 12 11 11 12 13 14 15 15 16 16 17 18 19 20 21 22 23 24 26 27 29 31 33 34 34 34 34 33 32 32 33 33 34 35 36 38 40 42 44
19 19 19 19 19 19 19 19 19 19 19 20 20 20 20 19 19 19 18 18 18 18 18 18 18 18 17 17 17 16 16 16 16 16 15 15 14 14 13 13 13 13 13 13 13 13 13 12 12 13 14 15 17 17 18 18 18 20 20 22 23 24 25 26 27 29 31 33 34 35 35 35 34 33 33 33 34 35 35 35 37 39 41 43 45
21 20 20 20 21 21 20 20 20 20 20 20 20 20 20 20 20 19 19 19 19 19 19 19 18 18 18 17 17 17 16 16 16 15 15 14 14 14 14 14 14 14 15 14 14 14 14 14 14 15 16 17 18 19 19 20 21 21 22 23 25 26 27 28 29 31 33 34 35 35 35 35 35 35 34 34 35 36 36 37 38 40 42 43 45
22 22 22 21 22 22 22 22 22 21 21 21 21 21 20 21 20 20 20 20 20 20 20 20 20 19 19 18 18 17 17 17 16 16 15 15 15 15 15 15 15 15 16 16 15 15 15 16 16 17 18 19 20 21 21 22 23 23 24 26 27 28 29 30 31 32 34 35 36 35 35 35 36 36 36 36 37 37 37 38 40 42 43 44 45
24 24 23 23 23 24 24 24 24 23 23 23 22 22 22 22 22 21 21 21 21 21 21 21 21 20 20 19 19 18 18 17 17 17 16 16 16 16 16 16 16 17 17 17 17 17 17 18 18 19 20 21 22 22 23 24 25 25 26 28 29 30 31 32 33 34 36 36 36 36 35 36 37 37 37 37 38 38 39 40 42 43 44 46 47
27 26 25 25 26 26 25 25 25 25 25 24 24 23 23 23 23 23 22 22 22 22 22 22 22 21 21 20 20 19 19 18 18 18 18 17 17 17 17 18 18 19 19 19 19 19 19 20 21 21 22 23 24 24 25 26 26 27 28 30 31 32 33 34 34 36 37 37 36 36 36 37 38 38 37 38 39 40 40 41 43 44 46 48 49
30 29 28 28 29 28 27 26 26 26 26 26 25 25 25 24 24 24 24 23 23 23 23 22 22 22 21 21 21 20 20 20 20 19 19 19 19 19 19 20 20 21 21 21 22 22 22 22 23 24 25 25 26 27 27 28 29 29 30 31 33 34 35 36 36 37 38 38 37 37 37 38 38 38 38 39 40 40 42 43 45 46 48 49 51
33 32 31 32 32 30 29 28 28 28 28 27 27 27 26 26 26 25 25 25 24 24 24 23 23 23 22 22 22 22 22 22 21 21 21 21 21 21 21 22 22 23 23 24 24 24 24 24 25 26 27 28 28 29 30 30 31 31 32 33 34 36 37 38 38 39 39 38 38 38 38 39 39 39 39 40 40 41 43 45 47 48 50 51 52
36 35 34 35 35 33 32 31 30 30 30 29 29 29 28 28 27 27 27 26 26 25 25 25 25 25 24 24 25 24 24 24 24 23 23 23 23 24 24 24 25 25 26 26 26 26 26 27 28 28 29 30 31 31 32 33 33 33 34 35 36 37 39 39 40 40 40 39 39 39 39 39 40 40 40 41 42 43 44 46 47 49 51 52 53
39 39 38 38 38 36 35 34 33 33 32 32 32 31 31 30 30 30 29 28 27 27 27 27 27 27 26 27 27 27 26 26 26 26 26 26 26 26 26 27 27 28 28 29 29 29 29 30 30 31 32 33 33 34 34 35 35 35 36 37 38 39 40 41 41 41 40 40 40 40 40 40 41 41 43 44 45 46 47 48 49 50 51 53 54
42 42 41 41 41 40 38 37 36 35 35 35 34 34 34 33 33 32 31 31 30 29 29 29 29 29 29 29 29 29 29 28 28 28 28 28 28 29 29 29 30 31 31 32 32 32 32 32 33 33 34 35 36 36 36 36 36 37 38 39 40 41 42 42 42 42 42 42 42 41 42 42 43 44 45 46 47 48 49 50 51 52 53 54 55
44 45 45 44 44 44 42 40 39 38 38 37 37 37 36 36 35 35 34 33 32 32 32 32 32 32 32 32 32 32 31 31 31 30 30 30 31 31 32 32 33 33 34 34 34 35 35 35 35 36 37 37 38 38 38 38 38 39 40 41 42 43 44 44 43 43 43 43 43 44 44 45 46 47 48 49 50 50 51 52 54 55 56 57 57
46 47 48 47 47 47 45 43 42 42 41 41 40 39 39 38 38 37 37 36 34 34 35 36 36 35 36 35 35 35 34 34 33 32 33 33 33 34 34 35 35 36 37 37 37 37 37 38 38 38 39 40 40 40 40 40 40 41 42 43 44 45 46 45 45 45 45 45 46 46 47 48 49 49 50 51 52 53 53 54 56 58 58 59 61
48 49 50 50 50 49 48 47 46 45 44 44 43 42 41 41 40 40 39 38 37 37 38 39 39 39 39 39 39 38 37 36 35 35 35 35 36 36 37 37 38 39 39 40 39 40 40 40 40 40 41 41 42 42 42 42 42 44 45 46 46 47 47 47 47 48 48 48 48 49 49 50 51 51 52 53 54 55 56 57 59 60 61 62 63
51 51 51 52 52 51 51 51 49 48 48 47 46 45 45 44 43 42 41 40 39 40 42 42 42 42 42 42 42 40 39 38 38 37 37 38 39 39 39 40 40 41 42 42 42 42 42 42 42 43 43 43 44 44 44 44 45 46 47 48 48 48 48 49 50 50 50 50 50 51 52 52 53 53 54 55 56 57 58 59 61 62 63 64 66
54 54 53 54 54 54 54 54 52 51 51 50 49 48 48 46 45 44 43 42 42 43 44 44 44 45 45 45 43 42 40 40 39 39 39 41 41 42 42 42 42 44 44 44 44 44 44 44 44 45 45 45 45 46 46 46 47 48 48 49 50 50 50 51 52 52 52 52 53 53 54 54 55 56 56 57 58 59 60 61 62 64 65 66 68
57 56 56 56 56 56 56 56 55 54 53 52 52 52 50 49 48 47 46 45 46 46 46 47 47 47 47 47 45 43 42 41 41 42 43 44 44 44 44 44 45 45 46 46 46 46 46 46 46 46 47 47 47 48 48 48 49 50 50 51 52 52 53 53 53 54 54 54 55 55 56 56 57 58 59 59 60 61 62 63 64 65 67 68 70
60 59 60 59 59 59 59 58 57 57 56 54 54 54 53 51 51 50 49 48 49 49 49 50 50 50 49 48 47 46 44 44 44 44 46 46 46 46 46 46 46 47 47 48 48 48 48 48 48 48 48 48 49 50 50 51 51 52 52 53 53 53 54 56 56 56 56 56 57 57 58 58 59 60 61 62 63 64 65 65 67 68 69 70 72
62 63 63 62 61 61 61 60 59 59 58 57 57 55 54 54 53 52 51 51 52 51 52 53 52 51 51 51 49 48 48 48 47 47 48 49 49 48 48 48 48 48 49 49 50 50 50 50 49 49 50 50 51 52 53 53 53 54 55 55 55 54 56 57 58 59 59 59 59 60 61 61 62 63 63 64 66 66 67 68 68 70 71 72 74
65 66 66 65 64 63 63 63 62 61 61 60 59 58 56 56 55 55 54 54 54 54 55 55 54 53 53 53 52 51 51 51 51 50 51 51 51 51 51 51 51 51 51 52 52 52 52 52 51 51 52 52 52 53 55 56 56 57 57 57 57 56 57 59 60 60 61 62 62 63 64 64 65 66 66 67 68 69 69 70 70 71 72 74 76
69 69 69 67 66 66 66 66 65 64 63 63 62 60 59 58 58 57 57 56 55 57 58 57 56 55 56 55 55 55 54 54 54 54 54 54 54 54 54 54 53 54 54 54 55 55 54 54 54 53 54 54 54 55 56 57 58 60 60 60 60 59 58 59 61 62 62 63 65 66 67 68 68 69 71 71 71 72 73 73 73 73 74 75 76
74 73 72 71 70 69 69 69 67 66 66 66 64 62 61 61 60 59 58 57 57 59 60 59 58 58 58 58 58 57 57 57 56 56 56 56 57 57 57 56 56 56 56 56 57 57 57 57 56 56 56 57 57 58 58 58 59 61 62 63 63 63 62 61 62 63 63 64 66 69 70 71 71 73 75 76 75 76 78 78 78 77 77 77 78
78 77 76 75 74 73 72 71 70 69 69 68 66 64 64 64 63 61 60 60 60 61 61 61 60 60 60 61 61 60 60 59 59 59 59 59 59 60 60 59 59 59 58 58 59 59 59 59 59 59 59 60 60 60 61 61 61 62 64 65 66 67 66 65 65 65 65 64 66 69 72 73 73 74 77 79 79 81 82 83 83 83 82 81 81
82 81 80 79 78 76 75 74 73 72 71 71 69 67 66 66 65 63 62 62 63 63 64 63 63 63 63 63 64 64 63 63 62 62 62 62 62 62 62 62 62 61 61 61 62 62 61 61 61 62 62 63 63 64 64 65 65 65 65 67 68 69 69 70 70 69 67 66 67 69 73 74 75 76 78 80 81 83 85 86 87 87 87 86 86
85 85 84 83 82 80 78 77 76 75 74 74 72 70 69 68 67 66 65 65 66 66 66 66 66 66 66 66 67 67 66 66 66 66 65 65 65 65 64 64 64 64 64 64 64 64 64 64 64 64 65 66 67 67 67 68 69 69 68 69 70 71 72 73 74 73 71 70 70 71 74 76 76 78 81 82 83 85 86 88 89 89 90 91 90
Wind_Direction
106 181 195 212 222 222 221 217 210 204 205 208 208 209 210 213 216 217 218 223 228 224 220 220 224 228 231 235 240 244 249 252 253 254 254 251 245 235 210 186 173 161 154 153 152 155 158 157 149 128 103 82 60 29 20 15 11 8 6 3 1 1 3 5 9 13 17 21 22 20 17 13 10 8 6 4 2 0 359 357 356 356 356 356 355
3 179 187 200 213 214 214 218 217 211 206 207 208 211 213 216 220 222 224 228 231 229 225 225 228 231 236 241 245 249 252 254 253 251 247 239 224 197 176 167 160 154 153 153 154 157 159 153 142 125 107 88 54 31 24 15 10 9 6 4 3 3 3 7 10 13 15 18 20 19 16 12 8 6 4 2 1 359 358 356 355 354 354 354 354
353 200 188 193 203 206 207 213 217 216 209 206 206 209 213 216 220 223 225 227 229 229 229 230 233 236 241 246 250 254 255 253 249 241 229 210 184 171 163 159 156 155 155 155 157 159 158 152 140 124 105 76 43 33 24 15 11 9 7 5 2 2 3 7 12 14 15 15 17 16 14 10 6 4 1 0 360 358 357 355 354 354 353 353 353
355 273 201 195 198 200 203 208 214 215 211 208 206 208 212 215 219 222 223 226 227 230 232 233 237 241 245 250 255 256 254 248 235 215 191 172 164 162 158 156 157 156 157 158 160 161 158 150 136 119 93 59 43 34 23 18 14 11 8 5 2 1 2 7 11 15 15 14 14 12 10 7 4 2 0 359 358 357 356 354 354 353 353 353 353
1 315 229 206 201 199 202 208 213 213 211 210 209 211 213 217 220 223 226 228 230 233 235 238 241 245 248 253 255 252 245 228 201 175 159 158 159 158 157 158 159 159 160 162 162 161 157 146 130 108 76 53 45 34 26 21 17 13 8 4 1 1 3 8 11 14 14 13 12 9 7 5 3 1 360 358 357 356 355 354 353 353 353 352 352
3 338 254 225 214 206 205 209 213 213 212 211 212 214 217 219 222 226 229 231 234 237 240 242 244 246 248 249 247 239 215 186 165 152 152 156 157 157 159 160 161 163 164 165 163 160 155 145 122 87 60 57 49 34 27 22 17 13 9 4 1 2 5 9 12 13 12 11 9 7 4 3 2 1 359 357 356 355 354 354 353 353 352 351 351
2 351 280 227 223 219 213 212 215 216 215 215 215 216 219 222 225 229 232 235 237 239 241 242 242 243 241 239 230 200 173 158 149 149 153 156 157 159 162 163 164 167 168 167 165 162 158 143 111 73 68 66 46 32 25 20 16 11 8 4 1 4 7 10 13 13 11 8 6 5 3 3 1 359 357 355 354 353 353 353 353 352 351 351 350
0 351 323 217 213 220 220 218 219 221 222 223 223 223 224 226 228 231 234 236 237 238 238 238 237 232 228 220 193 168 156 148 148 153 156 157 159 162 165 167 169 170 171 169 169 168 160 138 99 79 81 68 41 29 22 17 13 8 5 2 0 4 8 11 13 13 10 6 4 3 2 0 358 356 354 353 352 352 352 352 352 351 350 350 349
3 348 328 239 197 208 217 220 222 225 226 226 225 224 223 224 225 227 229 231 231 230 228 225 219 215 210 191 168 158 151 150 154 156 158 160 162 165 168 171 173 173 173 173 174 172 163 142 106 90 86 59 37 26 19 13 8 4 2 359 358 1 6 10 11 11 9 5 3 1 358 356 354 353 351 351 351 351 351 351 351 350 349 349 349
11 349 324 270 193 188 201 211 215 215 212 209 207 208 209 211 213 219 223 225 224 221 216 209 201 200 190 171 161 156 153 156 159 160 162 164 165 168 172 175 176 176 176 178 179 176 170 155 116 87 68 44 29 20 14 7 2 359 358 357 355 358 2 7 9 8 6 3 359 356 353 351 350 349 349 349 350 350 350 350 350 349 348 348 348
15 350 319 277 212 178 180 188 192 191 189 188 189 190 195 201 207 215 222 225 223 217 209 200 193 187 175 165 160 158 158 161 163 164 167 168 170 173 177 180 179 178 179 181 180 180 178 167 130 69 46 30 20 15 8 360 354 352 354 354 353 354 358 1 4 3 2 358 353 350 348 347 347 347 347 348 348 349 349 348 348 348 348 347 348
355 345 315 277 235 188 174 176 178 178 179 179 180 183 189 196 204 213 220 224 222 213 202 194 188 178 170 165 161 162 163 165 166 168 172 174 176 179 183 183 181 179 180 182 183 185 186 194 203 30 29 22 17 11 1 352 346 345 350 351 349 350 353 356 357 355 353 350 347 345 344 344 344 344 345 346 347 347 347 347 347 347 347 347 348
238 321 306 272 246 215 185 178 178 177 176 175 176 179 184 191 199 209 216 220 217 207 197 189 182 173 170 167 165 166 168 169 170 174 178 180 182 185 187 185 180 179 182 185 189 194 203 219 253 343 9 12 12 5 353 344 339 341 346 348 347 346 349 350 349 347 344 342 342 341 341 342 342 343 343 344 345 345 345 345 346 346 346 347 348
223 234 274 260 244 241 215 190 183 179 177 175 174 175 177 184 191 200 208 212 210 201 193 186 179 174 172 169 169 172 172 173 176 180 184 185 187 189 188 182 178 180 185 192 199 210 222 236 270 324 345 355 360 354 344 336 335 337 342 346 345 344 345 345 343 340 337 337 338 338 339 340 341 341 341 342 343 343 344 344 344 345 347 347 348
225 208 230 235 222 244 242 210 191 184 180 176 173 173 174 177 182 189 196 200 200 196 190 185 180 178 175 172 174 177 177 179 182 185 188 188 189 187 182 177 179 184 191 201 211 222 233 248 278 310 327 340 347 343 336 332 332 335 340 344 344 342 341 339 337 335 334 334 335 335 337 339 340 340 340 340 341 341 342 342 343 345 346 347 347
229 208 209 217 195 208 234 221 201 190 183 180 177 176 177 178 180 181 184 186 188 190 187 186 184 181 179 174 177 182 182 183 186 188 190 188 186 179 175 177 183 191 199 209 219 230 241 256 278 298 315 330 337 334 329 327 330 333 338 341 341 339 337 334 333 332 332 332 332 333 335 337 338 338 338 338 339 340 341 342 343 344 345 346 347
230 213 202 213 195 179 197 210 203 195 189 186 185 184 185 184 185 184 183 181 179 182 184 186 187 186 185 179 181 186 186 186 187 189 190 187 181 176 177 182 190 199 207 217 227 238 250 264 277 293 309 322 328 328 324 323 327 331 332 335 337 334 332 330 330 330 330 330 331 331 333 335 336 336 336 336 337 338 339 341 342 343 344 345 346
233 218 202 207 205 183 184 199 201 200 197 195 196 194 194 192 193 192 190 185 180 180 183 188 191 193 192 185 186 189 187 187 187 188 188 185 181 181 184 190 198 207 215 224 234 246 258 268 279 291 304 316 322 322 320 320 323 326 326 327 328 327 327 327 327 327 328 328 329 329 331 332 333 334 334 334 335 337 339 340 341 342 344 345 346
234 224 208 201 209 197 188 196 202 204 205 206 207 205 203 201 200 199 197 194 187 182 185 194 200 201 198 191 190 191 189 188 188 188 188 186 186 187 192 200 207 214 221 230 239 250 260 270 280 290 300 310 316 316 315 316 318 320 319 319 320 322 322 324 324 325 326 326 327 327 328 330 331 331 332 333 334 336 338 339 340 342 343 344 345
236 229 216 203 204 206 199 200 205 209 213 215 215 215 212 209 207 205 203 199 193 187 190 199 205 207 202 197 195 192 191 191 191 190 191 192 192 195 202 208 214 219 225 233 242 252 261 271 280 288 296 305 309 309 309 310 312 314 313 314 316 318 319 321 321 323 324 324 325 325 326 327 328 329 330 332 333 335 336 338 339 341 342 343 343
236 232 224 212 204 205 205 205 208 213 217 219 220 221 219 217 213 210 207 204 199 194 196 202 206 208 207 204 199 195 194 196 196 196 196 196 198 204 210 214 218 222 228 236 245 253 262 271 278 286 294 300 302 301 301 302 304 307 308 309 312 314 316 318 319 320 322 322 323 324 324 325 326 327 329 330 332 334 335 337 338 340 340 341 340
236 233 229 221 212 208 207 208 210 214 218 221 223 224 224 222 219 215 210 206 202 200 201 205 208 210 210 207 202 199 199 199 201 200 199 200 204 209 213 217 221 226 232 239 247 254 260 268 275 284 291 295 297 295 293 292 295 300 303 306 308 311 313 315 317 318 319 320 321 322 322 323 324 325 327 329 331 333 334 335 337 338 338 338 338
236 234 232 229 222 215 212 212 212 215 218 220 223 225 226 224 221 216 212 208 204 203 204 207 209 211 210 207 204 203 202 201 201 202 203 204 208 213 217 222 226 231 236 241 247 252 259 266 275 283 288 290 290 288 286 285 289 295 299 303 306 308 310 312 314 315 317 318 319 320 321 321 322 324 325 327 329 331 333 334 335 336 336 336 336
235 235 234 232 229 223 218 216 215 216 218 220 221 223 224 223 221 217 214 211 209 208 208 209 210 210 209 207 206 205 205 203 203 205 207 208 212 216 221 225 230 234 238 242 247 253 261 268 274 280 283 284 284 282 281 283 288 293 296 299 302 305 307 310 311 312 314 315 317 318 319 320 320 322 323 325 327 329 331 332 333 334 334 334 334
233 233 233 232 231 229 225 222 220 219 219 219 220 220 222 221 221 219 218 216 215 213 212 212 211 209 208 206 205 205 204 204 206 208 209 211 214 218 223 227 231 236 240 245 252 259 265 269 272 276 279 280 279 279 279 282 288 292 295 297 300 302 304 307 308 310 312 313 315 316 318 318 319 320 321 323 325 327 329 330 331 331 332 332 332
232 231 232 232 232 232 231 228 225 223 222 221 221 221 222 222 222 221 221 220 219 217 215 214 212 209 206 204 204 204 205 205 207 209 211 213 216 221 225 230 235 241 248 254 259 262 265 267 269 273 276 276 277 278 280 285 289 291 293 295 297 299 302 304 306 308 310 312 314 316 317 317 317 318 319 321 322 324 327 328 329 329 329 330 331
235 231 230 230 231 233 233 232 229 227 225 224 224 223 223 222 222 222 221 220 220 219 218 216 214 211 209 208 207 208 208 209 211 213 215 217 221 226 230 236 242 248 254 257 259 261 262 265 267 270 273 275 276 278 282 286 289 290 291 293 295 297 300 302 304 306 309 311 313 315 316 316 316 317 318 319 320 321 324 325 326 327 328 329 330
238 235 231 229 229 231 232 232 232 230 227 226 226 225 224 222 221 221 221 221 220 220 220 219 218 216 216 215 215 215 215 216 218 220 222 225 230 234 237 242 246 251 254 255 257 260 261 264 266 269 271 273 275 279 282 285 287 288 290 291 293 295 298 301 303 305 308 311 313 315 315 315 315 315 316 317 318 319 321 322 324 325 327 328 329
238 238 235 231 228 229 230 231 232 231 229 228 227 226 224 222 222 221 220 220 220 221 221 222 222 222 222 223 222 223 223 225 227 229 231 233 237 240 243 245 248 251 254 256 257 260 263 265 267 268 270 272 275 279 283 285 285 287 288 290 291 294 297 300 302 304 307 310 313 314 315 314 313 314 315 316 316 317 319 320 322 323 325 327 329
237 238 238 235 232 230 230 230 231 232 231 230 229 228 226 225 224 222 221 221 221 222 223 224 225 226 227 228 229 230 231 234 235 237 239 240 243 245 247 249 251 253 256 257 259 261 263 265 266 267 270 273 276 280 283 284 285 286 287 288 291 293 296 299 302 304 307 309 312 313 313 312 312 313 315 315 315 316 318 319 320 322 324 326 327
238 238 238 238 235 233 232 231 232 233 233 233 233 231 230 228 228 226 225 224 224 225 225 226 227 229 231 233 234 236 237 239 241 243 244 245 246 247 249 251 253 255 256 258 259 261 263 264 266 268 271 274 277 280 282 283 284 285 286 288 290 293 296 299 301 303 306 309 311 312 312 311 312 313 314 314 314 315 317 318 320 322 324 325 326
239 238 238 237 236 235 234 233 233 233 234 235 236 235 234 232 232 232 230 229 229 229 229 230 231 233 235 237 238 240 242 243 244 245 245 246 247 248 249 251 253 256 257 260 261 263 264 267 269 271 274 276 278 280 282 283 284 285 286 287 290 293 296 298 301 302 305 308 310 310 310 310 311 313 314 313 313 315 316 318 319 321 323 324 325
238 238 237 236 236 236 236 236 235 234 235 236 237 237 237 236 236 235 235 235 234 234 235 235 235 236 237 239 241 242 243 244 245 246 246 246 247 249 251 253 254 256 259 261 264 266 267 269 271 273 275 276 278 280 282 283 284 285 286 288 290 292 295 298 300 302 304 308 309 309 309 310 311 312 312 312 312 314 316 317 319 320 321 322 324
238 237 237 236 236 236 237 237 236 235 236 237 237 238 239 239 239 239 239 239 239 239 239 239 239 239 240 240 242 243 243 244 245 246 247 249 250 252 254 255 257 258 260 262 265 266 268 269 271 273 274 276 278 280 281 283 284 286 287 288 290 292 294 297 299 301 304 307 307 307 308 309 310 311 311 311 312 314 315 317 318 319 320 321 322
239 238 237 237 237 237 237 237 237 236 237 237 237 239 240 240 241 241 241 241 242 242 242 242 242 242 242 242 243 244 244 245 246 247 249 251 253 254 256 257 259 261 263 264 265 267 268 269 271 272 274 276 278 279 281 283 285 287 287 288 290 291 294 296 299 301 304 305 305 306 307 308 309 309 309 310 311 312 314 315 316 317 318 319 320
240 239 238 238 238 238 237 237 237 237 237 237 238 238 239 240 240 241 242 243 243 244 244 244 245 244 244 245 245 246 246 247 248 249 250 252 254 255 257 259 261 262 264 265 266 267 268 269 271 272 274 276 278 280 282 284 286 287 287 288 290 291 294 296 299 301 304 304 304 305 306 307 307 308 308 309 310 311 313 315 315 315 316 317 318
240 240 239 238 239 239 238 237 237 238 238 238 238 238 238 239 239 241 242 243 244 245 245 246 246 246 246 247 247 248 248 249 249 251 252 254 255 256 258 259 261 262 264 264 266 267 268 270 271 272 274 276 278 280 283 284 286 286 288 289 290 291 293 296 299 301 302 302 303 304 305 305 306 307 308 308 309 311 313 314 313 314 314 315 315
241 241 240 239 239 239 239 239 238 238 239 239 239 239 239 240 240 241 242 243 244 244 245 246 247 247 247 247 248 248 249 250 251 252 254 255 256 257 259 260 261 262 263 264 266 267 268 270 271 273 275 277 279 281 283 285 286 287 288 289 290 291 294 297 299 300 300 301 302 303 304 304 305 306 307 308 308 310 312 312 312 312 313 314 314
243 242 241 241 240 240 240 240 240 240 239 239 240 240 241 242 242 243 243 244 245 245 245 246 246 247 247 247 248 248 249 250 252 253 254 256 257 258 259 260 261 262 264 265 266 267 269 270 272 274 275 277 279 281 283 285 286 286 288 289 290 292 294 297 298 299 300 301 301 302 303 304 305 306 307 307 307 309 310 310 310 311 312 313 313
243 243 243 242 241 241 241 241 241 241 241 241 241 242 242 243 244 245 245 246 246 245 245 246 246 247 247 247 248 249 250 252 253 254 255 256 257 258 259 260 262 263 264 265 267 268 269 271 273 274 276 278 280 281 283 284 285 286 287 289 290 292 294 296 297 298 300 300 301 302 302 303 304 305 306 306 307 308 308 309 309 310 311 312 312
242 243 243 243 243 242 242 242 241 241 242 243 243 243 244 244 245 246 247 247 247 246 246 247 247 248 249 249 250 251 252 254 255 256 256 257 257 258 259 260 262 263 265 266 267 268 270 272 274 275 276 278 280 281 283 284 284 285 287 289 290 292 293 294 296 298 299 299 300 301 301 302 303 304 305 305 305 306 307 307 308 309 310 310 311
242 242 243 243 243 243 242 242 242 241 242 244 245 245 245 246 247 248 248 249 249 248 249 249 250 250 251 252 253 255 256 257 258 258 257 256 257 258 259 260 261 263 265 267 268 269 271 273 275 276 277 279 280 281 282 283 284 285 287 288 289 291 292 293 295 296 297 298 299 299 300 301 302 302 303 304 304 304 305 306 307 308 309 309 310
243 242 242 243 243 243 243 242 243 243 242 243 244 246 247 247 248 248 249 249 250 250 251 252 252 252 253 255 257 258 259 259 259 259 257 258 258 259 260 262 263 264 266 268 269 270 272 273 275 276 278 279 279 280 281 282 283 285 287 287 288 290 292 293 294 294 295 296 297 298 298 299 300 300 301 302 302 303 304 305 306 307 307 308 309
243 243 243 243 242 243 243 243 243 243 244 243 244 246 247 248 249 249 250 250 250 251 252 253 253 254 255 257 258 260 261 260 259 259 259 260 260 261 262 263 264 266 267 268 269 271 272 273 275 277 278 278 279 280 281 281 283 285 285 285 287 290 290 291 292 293 294 295 295 296 297 298 298 299 299 300 301 302 303 304 305 306 306 307 308
245 244 244 243 243 243 243 243 243 243 244 244 244 245 246 248 249 250 250 251 252 252 253 253 254 256 257 258 259 260 260 260 259 259 260 261 262 263 264 264 265 266 267 269 269 270 272 273 274 276 276 277 278 280 280 281 282 283 283 285 287 288 288 289 290 291 293 294 295 295 296 296 297 298 298 299 300 301 302 303 304 304 305 306 307
246 245 245 244 244 244 243 243 243 243 243 244 244 245 246 247 249 249 250 251 253 254 254 255 255 256 257 258 259 259 259 260 260 260 260 261 262 263 264 264 265 266 267 268 269 271 272 273 273 274 275 276 277 278 279 281 281 281 282 284 285 285 286 288 289 290 292 293 294 295 295 296 297 297 298 298 299 300 300 301 302 303 304 305 305
248 247 246 246 245 245 244 243 243 243 243 243 244 245 246 247 248 249 250 251 253 254 255 256 257 258 258 259 259 259 260 260 260 261 261 262 262 263 263 264 265 266 267 268 270 271 272 273 273 274 275 276 276 277 278 279 281 281 282 283 283 284 285 286 287 289 291 292 293 295 295 296 297 298 298 298 299 299 300 300 301 302 302 303 304
248 248 248 247 246 246 246 245 244 243 243 243 243 244 245 247 248 249 251 252 253 254 256 257 258 259 259 260 260 260 261 261 261 261 262 263 263 264 264 265 265 266 267 268 269 271 272 273 274 275 275 276 277 277 278 279 279 281 282 283 283 284 284 285 285 287 289 291 293 294 295 296 297 298 299 300 300 300 301 301 301 302 303 303 304
248 248 248 248 247 246 247 247 246 245 244 244 244 244 245 246 247 249 251 252 253 254 256 257 258 259 260 261 261 261 261 261 261 262 262 263 263 264 264 265 266 266 268 269 269 270 272 273 274 275 276 276 277 278 278 279 279 280 281 282 283 284 285 285 285 286 287 289 291 292 294 295 296 298 298 299 300 300 300 301 301 302 303 304 304
247 248 248 248 248 247 247 248 247 247 247 246 245 244 244 245 247 248 249 251 253 254 256 257 258 259 260 261 261 262 262 262 262 262 262 262 263 263 264 265 266 267 268 268 269 270 272 273 274 275 276 276 277 278 279 279 279 280 280 281 283 284 285 286 286 287 288 289 290 291 293 294 295 297 297 298 298 299 299 300 301 302 303 303 304
247 247 247 248 248 248 248 248 248 248 248 248 248 247 246 246 246 247 248 249 251 253 254 256 257 258 259 260 261 262 262 262 263 263 263 263 263 263 264 265 267 268 268 269 270 271 271 272 273 275 276 276 277 278 279 279 280 280 281 281 283 284 285 286 287 288 289 289 290 291 292 293 295 296 296 296 297 297 298 299 300 301 302 302 303
Height
10870 10870 10871 10872 10873 10873 10874 10875 10876 10876 10877 10878 10879 10880 10882 10883 10883 10884 10885 10885 10886 10887 10887 10887 10888 10888 10888 10889 10889 10889 10890 10890 10891 10891 10891 10891 10891 10892 10892 10892 10893 10894 10895 10895 10896 10896 10896 10896 10896 10896 10896 10896 10896 10896 10896 10895 10895 10894 10893 10892 10892 10891 10890 10890 10889 10889 10888 10887 10887 10886 10886 10885 10884 10883 10883 10882 10881 10880 10878 10877 10876 10874 10873 10872 10871
10870 10870 10871 10871 10872 10873 10874 10874 10875 10876 10877 10878 10879 10880 10881 10882 10883 10883 10884 10884 10885 10886 10886 10886 10887 10887 10887 10888 10888 10888 10889 10889 10889 10890 10890 10890 10891 10891 10892 10893 10893 10894 10895 10896 10896 10896 10896 10896 10896 10896 10896 10896 10896 10896 10896 10895 10895 10894 10893 10892 10891 10891 10890 10890 10889 10888 10888 10887 10887 10886 10886 10885 10884 10883 10883 10882 10881 10879 10878 10876 10875 10874 10873 10872 10870
10870 10870 10870 10871 10871 10872 10873 10874 10875 10876 10876 10877 10878 10879 10880 10881 10882 10882 10883 10884 10884 10884 10885 10885 10886 10886 10887 10887 10887 10888 10888 10888 10888 10889 10889 10890 10890 10891 10892 10893 10894 10895 10895 10896 10896 10896 10896 10896 10896 10896 10896 10896 10896 10896 10896 10895 10894 10894 10893 10892 10891 10891 10890 10889 10889 10888 10887 10887 10886 10886 10886 10885 10884 10883 10882 10881 10880 10879 10878 10876 10875 10873 10872 10871 10869
10870 10869 10870 10870 10871 10871 10872 10873 10874 10875 10876 10877 10877 10878 10879 10880 10881 10881 10882 10883 10883 10884 10884 10885 10885 10885 10886 10886 10887 10887 10887 10887 10887 10888 10888 10889 10890 10891 10892 10893 10894 10895 10895 10896 10896 10896 10896 10896 10896 10896 10896 10896 10896 10896 10896 10895 10894 10893 10892 10892 10891 10890 10890 10889 10888 10888 10887 10886 10886 10886 10885 10885 10884 10883 10882 10881 10880 10879 10877 10876 10874 10873 10871 10870 10868
10870 10869 10869 10869 10870 10870 10871 10872 10873 10874 10875 10876 10877 10877 10878 10879 10880 10880 10881 10882 10882 10883 10883 10884 10884 10885 10885 10886 10886 10886 10886 10886 10886 10887 10888 10889 10890 10891 10892 10893 10894 10895 10895 10896 10896 10896 10896 10896 10897 10897 10897 10896 10896 10896 10895 10895 10894 10893 10892 10891 10891 10890 10889 10889 10888 10887 10887 10886 10886 10885 10885 10884 10883 10882 10881 10880 10879 10878 10877 10875 10874 10872 10871 10869 10867
10870 10869 10869 10869 10869 10870 10870 10871 10872 10873 10874 10875 10876 10876 10877 10878 10879 10879 10880 10880 10881 10882 10882 10883 10883 10884 10884 10885 10885 10885 10885 10886 10886 10886 10888 10889 10890 10892 10893 10893 10894 10895 10895 10896 10896 10896 10896 10897 10897 10897 10897 10897 10896 10896 10895 10894 10894 10893 10892 10891 10891 10890 10889 10889 10888 10887 10886 10886 10885 10885 10884 10884 10883 10882 10881 10880 10878 10877 10876 10875 10873 10871 10870 10868 10866
10870 10869 10869 10868 10869 10869 10870 10871 10872 10873 10873 10874 10875 10876 10876 10877 10877 10878 10878 10879 10879 10880 10880 10881 10882 10883 10883 10884 10884 10885 10885 10885 10886 10887 10888 10890 10891 10892 10893 10894 10894 10895 10896 10896 10896 10896 10897 10897 10897 10897 10897 10897 10896 10895 10895 10894 10894 10893 10892 10891 10890 10890 10889 10888 10888 10887 10886 10886 10885 10884 10884 10883 10882 10881 10880 10879 10878 10876 10875 10874 10872 10870 10869 10867 10865
10870 10869 10868 10868 10868 10869 10870 10870 10871 10872 10873 10874 10874 10875 10876 10876 10876 10877 10877 10877 10878 10878 10879 10880 10881 10882 10882 10883 10884 10884 10885 10885 10886 10888 10889 10890 10891 10892 10893 10894 10894 10895 10895 10896 10896 10896 10897 10897 10897 10897 10897 10897 10896 10895 10895 10894 10893 10892 10892 10891 10890 10889 10889 10888 10887 10887 10886 10885 10885 10884 10883 10882 10881 10880 10879 10878 10877 10876 10874 10873 10871 10869 10867 10865 10864
10870 10869 10868 10868 10867 10868 10869 10870 10871 10872 10872 10873 10874 10875 10875 10875 10875 10876 10876 10876 10876 10877 10878 10879 10880 10880 10881 10882 10883 10884 10885 10886 10887 10888 10889 10890 10891 10892 10893 10894 10894 10895 10895 10895 10896 10896 10897 10897 10897 10897 10897 10897 10896 10895 10895 10894 10893 10892 10891 10891 10890 10889 10888 10888 10887 10886 10886 10885 10884 10883 10883 10882 10881 10880 10879 10877 10876 10875 10873 10872 10870 10868 10866 10864 10862
10870 10869 10868 10868 10867 10867 10868 10869 10870 10871 10872 10872 10873 10874 10874 10874 10875 10875 10875 10875 10875 10876 10877 10878 10879 10879 10881 10882 10883 10884 10885 10886 10887 10888 10889 10890 10891 10892 10893 10893 10894 10894 10895 10895 10896 10897 10897 10897 10897 10897 10897 10896 10895 10895 10894 10893 10893 10892 10891 10890 10889 10888 10888 10887 10886 10886 10885 10885 10884 10883 10882 10881 10880 10879 10878 10876 10875 10874 10872 10871 10869 10867 10865 10863 10861
10870 10869 10868 10868 10867 10867 10867 10868 10869 10870 10870 10871 10872 10873 10873 10873 10873 10874 10874 10874 10874 10875 10876 10877 10878 10879 10880 10881 10882 10884 10885 10886 10887 10888 10889 10890 10890 10891 10892 10893 10893 10894 10895 10895 10896 10897 10897 10897 10897 10896 10896 10895 10895 10894 10893 10893 10892 10891 10890 10889 10888 10888 10887 10886 10886 10885 10885 10884 10883 10882 10881 10880 10879 10878 10877 10875 10874 10873 10871 10870 10868 10866 10864 10862 10860
10869 10869 10869 10868 10868 10867 10867 10867 10868 10869 10869 10870 10871 10872 10872 10872 10872 10873 10873 10873 10873 10874 10875 10876 10877 10878 10880 10881 10882 10883 10884 10885 10886 10887 10888 10889 10890 10890 10891 10892 10893 10894 10895 10895 10896 10896 10896 10896 10896 10896 10895 10895 10894 10894 10893 10892 10891 10890 10890 10889 10888 10887 10886 10886 10885 10884 10884 10883 10882 10881 10880 10879 10878 10877 10876 10874 10873 10872 10870 10869 10867 10865 10863 10861 10859
10870 10869 10869 10869 10868 10868 10867 10867 10868 10868 10869 10870 10870 10871 10871 10872 10872 10872 10872 10872 10873 10873 10874 10875 10876 10878 10879 10880 10881 10882 10883 10884 10885 10886 10887 10888 10889 10890 10891 10892 10893 10894 10895 10895 10895 10896 10896 10896 10895 10895 10895 10894 10894 10893 10893 10892 10891 10890 10889 10888 10888 10887 10886 10885 10884 10884 10883 10882 10881 10880 10879 10878 10877 10876 10875 10873 10872 10871 10869 10868 10866 10864 10862 10860 10859
10870 10869 10869 10869 10869 10869 10868 10868 10868 10868 10869 10869 10870 10871 10871 10871 10872 10872 10872 10872 10872 10873 10873 10874 10876 10877 10879 10880 10881 10882 10883 10884 10884 10885 10887 10888 10889 10890 10891 10892 10893 10894 10894 10895 10895 10895 10895 10895 10895 10894 10894 10893 10893 10892 10892 10891 10890 10889 10889 10888 10887 10886 10886 10885 10884 10883 10882 10881 10880 10879 10878 10877 10876 10875 10873 10872 10871 10870 10868 10866 10865 10863 10861 10859 10857
10870 10870 10869 10869 10869 10869 10869 10869 10868 10869 10869 10870 10870 10871 10871 10871 10871 10872 10872 10872 10872 10873 10873 10874 10875 10877 10878 10879 10881 10881 10882 10883 10884 10885 10886 10888 10889 10890 10891 10892 10893 10893 10894 10894 10894 10894 10894 10894 10894 10893 10893 10893 10892 10891 10891 10890 10889 10888 10888 10887 10886 10886 10885 10884 10883 10882 10881 10880 10879 10878 10877 10876 10875 10874 10872 10871 10870 10868 10867 10865 10863 10861 10860 10858 10856
10870 10870 10869 10869 10869 10869 10870 10870 10870 10870 10870 10870 10870 10871 10871 10871 10871 10872 10872 10872 10872 10873 10874 10875 10876 10877 10877 10878 10880 10881 10882 10883 10884 10885 10887 10888 10889 10890 10891 10891 10892 10893 10893 10893 10893 10893 10893 10893 10893 10892 10892 10892 10891 10890 10890 10889 10888 10888 10887 10886 10886 10885 10884 10883 10882 10881 10880 10878 10877 10876 10876 10875 10874 10872 10871 10869 10868 10867 10865 10863 10861 10860 10858 10856 10854
10871 10870 10870 10870 10869 10869 10870 10871 10871 10870 10871 10871 10871 10871 10871 10872 10872 10872 10872 10872 10873 10874 10874 10875 10876 10877 10877 10878 10880 10881 10882 10883 10884 10885 10886 10887 10888 10889 10890 10890 10891 10891 10892 10892 10892 10892 10892 10892 10892 10891 10891 10891 10890 10889 10889 10888 10887 10887 10886 10885 10885 10884 10883 10882 10881 10880 10879 10877 10876 10875 10874 10873 10872 10871 10869 10868 10866 10865 10863 10862 10860 10858 10856 10854 10852
10870 10870 10870 10870 10870 10869 10870 10871 10871 10871 10871 10871 10871 10872 10872 10872 10872 10872 10873 10873 10873 10874 10875 10876 10877 10877 10878 10878 10879 10880 10881 10882 10883 10884 10885 10886 10887 10888 10888 10889 10890 10890 10890 10891 10891 10891 10891 10891 10891 10890 10890 10890 10889 10888 10888 10887 10886 10886 10885 10884 10884 10883 10882 10881 10880 10878 10877 10876 10875 10873 10872 10871 10871 10869 10868 10866 10865 10863 10862 10860 10858 10856 10854 10852 10851
10870 10870 10870 10870 10870 10870 10870 10870 10871 10871 10872 10872 10872 10872 10872 10872 10873 10873 10873 10873 10874 10874 10875 10876 10877 10878 10878 10879 10879 10880 10881 10882 10882 10883 10884 10885 10886 10886 10887 10888 10888 10889 10889 10889 10890 10890 10890 10890 10889 10889 10889 10888 10888 10887 10887 10886 10885 10885 10884 10883 10883 10882 10881 10880 10878 10877 10876 10874 10873 10872 10870 10869 10869 10868 10866 10865 10863 10861 10860 10858 10856 10854 10853 10851 10849
10870 10870 10870 10869 10870 10870 10870 10870 10871 10871 10872 10872 10872 10872 10872 10873 10873 10873 10873 10874 10874 10874 10876 10877 10877 10878 10878 10878 10879 10880 10880 10881 10882 10882 10883 10884 10884 10885 10886 10886 10887 10888 10888 10888 10888 10888 10888 10888 10888 10888 10888 10887 10887 10886 10886 10885 10884 10884 10883 10882 10881 10880 10879 10878 10877 10876 10874 10873 10871 10870 10869 10868 10866 10865 10864 10863 10861 10859 10858 10856 10854 10852 10851 10849 10847
10869 10870 10870 10869 10869 10870 10870 10870 10871 10871 10871 10872 10872 10872 10872 10873 10873 10873 10873 10874 10874 10875 10876 10877 10877 10878 10878 10878 10878 10879 10880 10880 10881 10881 10882 10883 10883 10884 10885 10885 10886 10886 10887 10887 10887 10887 10887 10887 10887 10886 10886 10886 10886 10885 10885 10884 10883 10882 10882 10881 10880 10879 10878 10877 10875 10874 10873 10872 10870 10869 10867 10866 10864 10863 10862 10861 10859 10857 10856 10854 10853 10851 10849 10847 10845
10868 10869 10869 10869 10869 10869 10869 10869 10870 10870 10871 10871 10872 10872 10872 10872 10873 10873 10873 10874 10874 10875 10875 10876 10877 10877 10877 10877 10878 10878 10879 10879 10880 10881 10881 10882 10882 10883 10884 10884 10885 10885 10886 10886 10886 10886 10886 10886 10885 10885 10885 10884 10884 10884 10883 10883 10882 10881 10880 10879 10878 10877 10876 10875 10874 10873 10871 10870 10869 10867 10866 10864 10862 10861 10860 10858 10857 10856 10854 10852 10850 10849 10847 10845 10843
10867 10868 10868 10868 10868 10868 10868 10869 10869 10869 10870 10870 10871 10871 10872 10872 10872 10872 10873 10873 10874 10874 10875 10875 10876 10876 10877 10877 10877 10877 10878 10878 10879 10880 10880 10881 10882 10882 10883 10883 10884 10884 10884 10884 10884 10884 10884 10884 10884 10884 10883 10883 10883 10882 10882 10881 10881 10880 10879 10878 10877 10875 10874 10873 10872 10871 10870 10869 10868 10866 10864 10862 10861 10859 10858 10856 10855 10853 10851 10850 10848 10846 10844 10842 10840
10866 10867 10867 10868 10868 10868 10868 10868 10868 10868 10869 10869 10870 10870 10871 10871 10871 10872 10872 10872 10873 10873 10874 10874 10875 10875 10875 10876 10876 10876 10877 10877 10878 10879 10879 10880 10881 10881 10882 10882 10882 10883 10883 10883 10883 10883 10883 10882 10882 10882 10882 10881 10881 10881 10880 10880 10879 10878 10877 10876 10875 10874 10873 10872 10870 10869 10868 10867 10866 10865 10863 10861 10859 10857 10856 10854 10852 10851 10849 10847 10845 10844 10842 10840 10838
10865 10865 10866 10867 10867 10867 10867 10867 10867 10867 10868 10868 10869 10869 10870 10870 10870 10871 10871 10872 10872 10872 10873 10873 10873 10874 10874 10874 10875 10875 10876 10876 10877 10878 10878 10879 10879 10880 10880 10881 10881 10881 10881 10881 10881 10881 10881 10881 10881 10880 10880 10880 10879 10879 10878 10878 10877 10877 10876 10875 10873 10872 10871 10870 10869 10868 10867 10865 10864 10863 10861 10859 10857 10856 10854 10852 10850 10848 10847 10845 10843 10841 10839 10837 10835
10863 10864 10865 10865 10865 10866 10866 10866 10866 10866 10867 10867 10868 10868 10868 10869 10869 10870 10870 10871 10871 10871 10871 10872 10872 10872 10872 10873 10873 10874 10874 10875 10876 10876 10877 10878 10878 10878 10879 10879 10879 10879 10879 10879 10879 10879 10879 10879 10879 10879 10878 10878 10877 10877 10876 10876 10875 10874 10874 10873 10871 10870 10869 10868 10867 10866 10865 10863 10862 10860 10859 10857 10855 10854 10852 10850 10848 10846 10844 10842 10840 10838 10836 10834 10832
10861 10862 10863 10864 10864 10865 10865 10865 10865 10865 10866 10866 10866 10867 10867 10868 10868 10869 10869 10869 10870 10870 10870 10871 10871 10871 10871 10871 10872 10872 10873 10874 10874 10875 10876 10876 10876 10876 10877 10877 10877 10877 10877 10877 10877 10877 10877 10877 10877 10877 10876 10876 10875 10875 10874 10874 10873 10872 10871 10870 10869 10868 10867 10866 10865 10863 10862 10861 10860 10858 10856 10855 10853 10852 10850 10848 10846 10845 10843 10841 10838 10836 10834 10831 10829
10860 10861 10861 10862 10863 10863 10864 10864 10864 10865 10865 10865 10865 10866 10866 10866 10867 10867 10868 10868 10868 10869 10869 10869 10870 10870 10870 10870 10871 10871 10872 10872 10873 10873 10874 10874 10874 10875 10875 10875 10875 10875 10875 10875 10875 10875 10875 10875 10875 10875 10874 10874 10873 10873 10872 10871 10871 10870 10869 10868 10867 10866 10865 10864 10863 10861 10860 10859 10857 10856 10854 10852 10851 10849 10848 10846 10844 10842 10841 10839 10836 10834 10832 10829 10826
10858 10859 10859 10860 10860 10861 10862 10863 10863 10863 10864 10864 10864 10864 10865 10865 10865 10866 10866 10867 10867 10867 10868 10868 10868 10869 10869 10869 10870 10870 10870 10871 10871 10872 10872 10872 10872 10872 10873 10873 10873 10873 10873 10873 10873 10873 10873 10873 10873 10872 10872 10871 10871 10870 10870 10869 10868 10867 10866 10865 10864 10863 10863 10862 10860 10859 10858 10856 10855 10854 10852 10850 10848 10847 10845 10844 10842 10840 10838 10836 10834 10832 10830 10827 10825
10856 10857 10857 10858 10858 10859 10860 10860 10861 10862 10862 10862 10863 10863 10864 10864 10864 10864 10865 10865 10866 10866 10866 10867 10867 10867 10868 10868 10868 10868 10869 10869 10869 10870 10870 10870 10870 10870 10871 10871 10871 10871 10871 10871 10871 10871 10871 10871 10870 10870 10870 10869 10868 10868 10867 10866 10865 10865 10864 10863 10862 10861 10860 10859 10858 10857 10855 10854 10853 10851 10849 10847 10845 10844 10842 10841 10839 10837 10836 10834 10832 10829 10827 10825 10823
10853 10854 10855 10856 10856 10857 10857 10858 10859 10860 10860 10861 10861 10862 10862 10862 10863 10863 10863 10864 10864 10864 10865 10865 10865 10866 10866 10866 10866 10866 10867 10867 10867 10868 10868 10868 10868 10868 10868 10869 10868 10868 10868 10868 10868 10868 10868 10868 10868 10868 10867 10867 10866 10866 10865 10864 10863 10862 10861 10860 10859 10858 10857 10857 10855 10854 10853 10852 10850 10848 10847 10845 10843 10841 10840 10838 10836 10835 10833 10831 10829 10826 10824 10822 10819
10851 10851 10852 10853 10853 10854 10855 10856 10856 10857 10858 10858 10859 10860 10860 10861 10861 10861 10862 10862 10863 10863 10863 10863 10863 10864 10864 10864 10864 10864 10864 10865 10865 10865 10866 10866 10866 10866 10866 10866 10866 10866 10866 10866 10866 10866 10866 10866 10865 10865 10865 10864 10864 10863 10862 10861 10861 10860 10858 10857 10856 10855 10854 10854 10853 10851 10850 10849 10848 10846 10844 10842 10840 10839 10837 10835 10833 10831 10830 10828 10825 10823 10821 10818 10816
10848 10848 10849 10850 10850 10851 10852 10853 10854 10854 10855 10856 10857 10857 10858 10858 10859 10859 10860 10860 10861 10861 10861 10861 10862 10861 10862 10862 10862 10862 10862 10862 10863 10863 10863 10863 10863 10864 10864 10864 10864 10863 10863 10863 10863 10863 10863 10863 10863 10862 10862 10861 10861 10860 10860 10859 10858 10857 10856 10855 10853 10852 10851 10851 10850 10849 10847 10846 10845 10843 10841 10839 10837 10836 10834 10833 10830 10828 10826 10824 10822 10819 10817 10815 10812
10845 10845 10846 10846 10846 10848 10849 10850 10851 10851 10852 10853 10854 10854 10855 10856 10856 10857 10858 10858 10859 10859 10859 10859 10859 10859 10859 10859 10859 10859 10860 10860 10860 10860 10861 10861 10861 10861 10861 10861 10861 10861 10861 10861 10860 10860 10860 10860 10860 10859 10859 10858 10858 10857 10856 10856 10855 10854 10853 10852 10851 10849 10848 10847 10847 10845 10844 10843 10842 10840 10838 10836 10834 10833 10831 10829 10827 10826 10823 10821 10818 10815 10813 10811 10809
10841 10842 10842 10842 10842 10844 10846 10846 10847 10848 10849 10850 10850 10851 10852 10853 10853 10854 10855 10855 10856 10856 10857 10857 10857 10857 10857 10857 10857 10857 10857 10857 10858 10858 10858 10858 10858 10858 10858 10858 10858 10858 10858 10857 10857 10857 10857 10857 10857 10856 10855 10855 10855 10854 10853 10852 10852 10851 10850 10848 10847 10846 10845 10844 10843 10842 10841 10840 10838 10837 10835 10833 10831 10830 10828 10826 10824 10822 10821 10818 10816 10813 10810 10807 10804
10836 10837 10838 10838 10839 10840 10841 10843 10844 10844 10845 10846 10847 10848 10848 10849 10849 10850 10851 10852 10853 10853 10854 10854 10854 10855 10855 10854 10854 10854 10855 10855 10855 10855 10855 10855 10855 10855 10855 10855 10855 10854 10854 10854 10854 10854 10854 10854 10853 10853 10852 10851 10851 10850 10850 10849 10848 10847 10846 10845 10844 10843 10842 10841 10840 10838 10838 10836 10835 10833 10831 10830 10828 10826 10824 10822 10820 10818 10817 10815 10813 10810 10808 10805 10802
10832 10832 10834 10834 10835 10835 10837 10838 10840 10840 10841 10842 10843 10844 10844 10845 10845 10846 10847 10848 10849 10850 10850 10850 10851 10851 10851 10851 10851 10851 10852 10852 10852 10852 10852 10853 10852 10852 10852 10852 10852 10851 10851 10850 10850 10851 10850 10850 10850 10849 10848 10848 10847 10847 10846 10845 10844 10844 10842 10842 10840 10839 10838 10837 10836 10835 10833 10832 10831 10829 10828 10826 10824 10822 10820 10818 10816 10814 10812 10810 10807 10805 10804 10802 10799
10828 10828 10829 10830 10830 10831 10832 10834 10835 10836 10837 10838 10838 10839 10840 10840 10841 10842 10843 10844 10845 10846 10846 10846 10847 10847 10847 10847 10848 10848 10848 10849 10849 10850 10850 10850 10849 10849 10849 10849 10848 10848 10847 10847 10847 10847 10847 10847 10846 10846 10845 10844 10844 10843 10843 10841 10840 10839 10838 10838 10836 10834 10833 10833 10832 10831 10829 10828 10827 10825 10824 10822 10820 10818 10816 10814 10811 10809 10808 10805 10802 10800 10798 10796 10794
10823 10824 10824 10824 10825 10826 10828 10830 10831 10831 10832 10833 10833 10834 10835 10836 10837 10838 10839 10840 10841 10842 10842 10842 10842 10842 10843 10843 10843 10844 10844 10845 10846 10846 10847 10846 10846 10846 10846 10845 10845 10844 10844 10844 10844 10844 10843 10843 10843 10842 10841 10840 10840 10839 10839 10838 10836 10835 10834 10833 10832 10830 10829 10829 10828 10826 10825 10824 10822 10821 10819 10817 10815 10814 10812 10809 10806 10805 10803 10801 10798 10795 10792 10790 10788
10817 10818 10819 10819 10820 10821 10823 10824 10826 10827 10827 10828 10828 10829 10831 10832 10833 10834 10835 10836 10837 10837 10837 10837 10837 10837 10838 10838 10839 10839 10841 10842 10843 10843 10843 10843 10843 10842 10842 10842 10841 10841 10840 10840 10840 10840 10839 10839 10839 10838 10838 10836 10835 10835 10835 10834 10832 10830 10830 10829 10828 10826 10825 10824 10823 10822 10821 10819 10818 10816 10815 10813 10811 10809 10807 10805 10802 10800 10798 10795 10792 10790 10787 10785 10782
10811 10812 10813 10814 10815 10817 10817 10818 10820 10822 10822 10823 10824 10825 10826 10827 10828 10829 10831 10832 10833 10832 10832 10832 10832 10832 10833 10833 10834 10835 10837 10838 10839 10840 10840 10839 10839 10838 10838 10838 10837 10836 10836 10836 10836 10835 10835 10835 10835 10834 10833 10833 10831 10830 10830 10830 10828 10826 10825 10824 10823 10822 10821 10820 10818 10817 10816 10814 10813 10811 10809 10808 10806 10804 10803 10800 10798 10795 10793 10790 10787 10785 10782 10779 10776
10805 10806 10808 10808 10810 10811 10811 10812 10814 10816 10817 10818 10819 10820 10820 10822 10824 10825 10826 10828 10828 10828 10827 10827 10828 10828 10828 10828 10830 10832 10834 10834 10835 10836 10835 10835 10834 10833 10833 10833 10833 10832 10831 10831 10831 10831 10831 10831 10830 10829 10829 10829 10827 10826 10825 10825 10824 10822 10821 10819 10817 10817 10816 10815 10813 10812 10811 10809 10808 10806 10804 10802 10800 10798 10797 10795 10792 10790 10788 10786 10783 10780 10778 10775 10772
10799 10801 10801 10802 10803 10804 10805 10806 10808 10809 10811 10813 10813 10814 10816 10818 10819 10820 10822 10822 10823 10823 10822 10823 10823 10823 10823 10824 10826 10828 10829 10831 10831 10830 10830 10829 10829 10829 10829 10829 10829 10828 10827 10827 10826 10826 10826 10826 10826 10825 10824 10824 10822 10821 10821 10819 10818 10817 10817 10815 10813 10812 10810 10809 10808 10807 10806 10804 10802 10801 10800 10798 10796 10793 10791 10789 10787 10785 10782 10780 10778 10776 10773 10770 10767
10793 10794 10794 10795 10796 10797 10798 10800 10802 10804 10805 10807 10808 10809 10811 10813 10814 10815 10817 10817 10817 10817 10818 10817 10817 10818 10819 10820 10821 10823 10825 10825 10825 10825 10824 10824 10824 10825 10825 10825 10824 10824 10823 10822 10822 10822 10822 10821 10821 10820 10820 10818 10817 10816 10815 10814 10812 10812 10811 10809 10808 10808 10805 10803 10802 10800 10799 10799 10796 10795 10793 10791 10790 10787 10785 10783 10781 10779 10777 10775 10773 10770 10768 10765 10762
10786 10786 10786 10788 10790 10791 10793 10794 10797 10798 10799 10801 10802 10804 10806 10807 10808 10810 10811 10811 10811 10812 10812 10811 10812 10814 10814 10815 10817 10818 10819 10819 10819 10820 10819 10818 10819 10819 10820 10820 10820 10819 10818 10817 10817 10816 10816 10816 10817 10816 10815 10813 10812 10810 10808 10808 10807 10806 10804 10804 10804 10803 10800 10797 10796 10794 10792 10791 10790 10788 10787 10785 10783 10781 10779 10777 10775 10773 10771 10769 10768 10765 10762 10759 10757
10778 10778 10778 10781 10784 10785 10786 10787 10790 10791 10793 10794 10795 10798 10801 10801 10802 10804 10805 10806 10806 10806 10805 10805 10807 10809 10809 10810 10811 10812 10813 10813 10814 10814 10814 10813 10813 10813 10814 10814 10814 10814 10813 10812 10811 10811 10811 10811 10811 10811 10809 10808 10808 10806 10802 10801 10801 10799 10798 10798 10798 10797 10795 10792 10790 10788 10786 10784 10782 10781 10779 10778 10777 10775 10773 10772 10769 10767 10765 10764 10762 10760 10758 10755 10752
10770 10769 10771 10775 10777 10778 10778 10779 10783 10785 10786 10787 10789 10792 10795 10795 10796 10798 10799 10801 10802 10800 10799 10800 10803 10804 10804 10805 10805 10806 10807 10807 10808 10808 10808 10808 10807 10808 10808 10808 10808 10807 10807 10807 10805 10805 10805 10805 10806 10805 10804 10803 10802 10801 10798 10797 10795 10792 10791 10791 10790 10791 10791 10788 10785 10783 10782 10778 10775 10773 10771 10769 10768 10766 10763 10763 10762 10759 10756 10755 10755 10754 10752 10751 10748
10762 10762 10764 10767 10768 10769 10770 10772 10776 10778 10779 10780 10783 10786 10788 10789 10790 10792 10794 10796 10796 10794 10793 10795 10797 10797 10798 10798 10798 10799 10800 10801 10802 10802 10802 10802 10801 10801 10801 10801 10802 10801 10802 10802 10800 10799 10799 10799 10799 10799 10798 10797 10796 10795 10793 10792 10790 10786 10784 10783 10782 10782 10783 10784 10781 10778 10777 10775 10770 10765 10763 10761 10760 10757 10752 10751 10751 10749 10745 10743 10744 10744 10743 10742 10741
10753 10754 10755 10757 10759 10761 10762 10765 10769 10771 10771 10773 10777 10781 10782 10783 10785 10787 10789 10790 10790 10789 10788 10790 10791 10791 10791 10791 10791 10792 10793 10794 10795 10795 10795 10795 10795 10794 10794 10795 10795 10795 10796 10796 10794 10793 10793 10793 10793 10793 10792 10791 10789 10788 10786 10785 10785 10782 10778 10776 10774 10772 10773 10774 10774 10773 10773 10773 10768 10761 10756 10755 10754 10751 10746 10742 10741 10738 10735 10733 10732 10732 10733 10733 10732
10743 10744 10746 10747 10750 10753 10755 10757 10761 10763 10764 10766 10769 10774 10775 10776 10779 10782 10784 10783 10783 10782 10782 10784 10784 10783 10784 10784 10783 10784 10785 10786 10787 10787 10788 10788 10788 10788 10788 10788 10788 10789 10790 10789 10788 10788 10787 10787 10786 10786 10785 10784 10782 10781 10780 10777 10777 10776 10774 10771 10768 10765 10764 10763 10762 10764 10766 10767 10765 10760 10753 10749 10749 10747 10741 10737 10735 10731 10728 10725 10722 10721 10720 10721 10722
10733 10735 10736 10738 10740 10744 10746 10749 10752 10754 10757 10759 10762 10766 10769 10770 10773 10775 10777 10777 10776 10776 10776 10777 10776 10776 10777 10776 10775 10776 10777 10778 10778 10779 10780 10780 10780 10781 10781 10782 10782 10782 10782 10781 10781 10781 10781 10780 10780 10779 10778 10776 10775 10774 10773 10770 10767 10767 10767 10766 10763 10760 10757 10754 10752 10753 10756 10756 10756 10755 10748 10743 10743 10740 10734 10731 10729 10725 10722 10718 10715 10714 10711 10708 10710